"Pseudo-MPEC" for C2URMP2

Created 2020 May 26 13:07:05 UT using Find_Orb

Click here for an explanation of pseudo-MPECs

 
 Astrometry: 
     C2URMP2  C2020 05 23.26250 14 07 34.53 -02 18 39.7    ~5N77 20.8 GVNEOCPG96
     C2URMP2  C2020 05 23.26891 14 07 45.50 -02 17 58.3    ~5N77 20.6 GVNEOCPG96
     C2URMP2  C2020 05 23.27406 14 07 54.36 -02 17 23.7    ~5N77 20.7 GVNEOCPG96
     C2URMP2  C2020 05 23.27921 14 08 03.19 -02 16 50.3    ~5N77 20.8 GVNEOCPG96
     C2URMP2  C2020 05 23.34541 14 09 55.44 -02 09 41.8    ~5N8q 20.1 GVNEOCPI52
     C2URMP2  C2020 05 23.34748 14 09 58.94 -02 09 28.8    ~5N8q 20.4 GVNEOCPI52
     C2URMP2  C2020 05 23.34954 14 10 02.43 -02 09 15.8    ~5N8q 20.6 GVNEOCPI52
     C2URMP2  C2020 05 23.35161 14 10 05.91 -02 09 03.3    ~5N8q 20.1 GVNEOCPI52
     C2URMP2  C2020 05 23.90962 14 24 53.47 -01 17 29.6    ~5P9M 21.2 VVNEOCP033
     C2URMP2  C2020 05 23.91043 14 24 54.51 -01 17 25.1    ~5P9M 21.3 VVNEOCP033
     C2URMP2  C2020 05 23.91124 14 24 55.60 -01 17 21.1    ~5P9M 21.1 VVNEOCP033
     C2URMP2  C2020 05 23.91209 14 24 56.73 -01 17 16.9    ~5P9M 21.1 VVNEOCP033

Station data:
(033) Karl Schwarzschild Observatory, Tautenburg  (N50.980140 E11.711240)
   Germany. 1.3-m Schmidt.
(G96) Mt. Lemmon Survey  (N32.442754 W110.788720)  US/Arizona.  Observers T.
   A. Pruyne, B. M. Africano, E. J. Christensen, G. A. Farneth, D. C. Fuls,
   A. R. Gibbs, A. D. Grauer, H. Gröller, J. A. Johnson, R. A. Kowalski, S.
   M. Larson, G. J. Leonard, D. Rankin, R. L. Seaman, F. C. Shelly. 1.5-m
   reflector + 10K CCD.
(I52) Steward Observatory, Mt. Lemmon Station  (N32.442547 W110.788920)
   US/Arizona.  Observers T. A. Pruyne, B. M. Africano, E. J. Christensen, G.
   A. Farneth, D. C. Fuls, A. R. Gibbs, A. D. Grauer, H. Gröller, J. A.
   Johnson, R. A. Kowalski, S. M. Larson, G. J. Leonard, D. Rankin, R. L.
   Seaman, F. C. Shelly. 1.0-m reflector + CCD.

Orbital elements:  C2URMP2
   Perihelion 2020 Mar 22.154239 +/- 0.238 TT =  3:42:06 (JD 2458930.654239)
Epoch 2020 May 24.0 TT = JDT 2458993.5   Earth MOID: 0.0064   AutoNEOCP
M  44.30853454 +/- 0.46             (J2000 ecliptic)
n   0.70503616 +/- 0.0047           Peri.  276.21759 +/- 0.28
a   1.25024498 +/- 0.00555          Node   240.02133 +/- 0.010
e   0.3812583 +/- 0.00257           Incl.   10.32745 +/- 0.06
P   1.40/510.60d           H 27.2   G  0.15   U  9.1  
q 0.77357862 +/- 0.000658    Q 1.72691134 +/- 0.0109
From 12 observations 2020 May 23 (15.6 hr); mean residual 0".27
Residuals in arcseconds: 
200523 G96  .16+  .23+    200523 I52  .29-  .41+    200523 033  .31+  .21-    
200523 G96  .43-  .51-    200523 I52  .10-  .20+    200523 033  .24-  .18+    
200523 G96  .04+  .29+    200523 I52  .21+  .06+    200523 033  .04-  .07+    
200523 G96  .27+  .04-    200523 I52  .14+  .64-    200523 033  .03-  .03-    

Ephemerides (geocentric):
Date (UTC) HH   RA              Dec         delta   r     elong  mag " sig PA
---- -- -- --  -------------   -----------  ------ ------ -----  --- ---- ---
2020 05 26 13  15 05 09.164   +01 07 47.81  .04919 1.0569 152.0 22.0 63.9  79
2020 05 26 14  15 05 33.834   +01 09 11.10  .04947 1.0571 152.0 22.0 65.0  79
2020 05 26 15  15 05 58.229   +01 10 33.33  .04976 1.0574 152.0 22.0 66.1  79
2020 05 26 16  15 06 22.354   +01 11 54.52  .05004 1.0577 152.0 22.0 67.2  79
2020 05 26 17  15 06 46.212   +01 13 14.68  .05032 1.0579 152.0 22.0 68.3  79
2020 05 26 18  15 07 09.808   +01 14 33.84  .05061 1.0582 152.1 22.1 69.3  79
2020 05 26 19  15 07 33.147   +01 15 51.99  .05089 1.0585 152.1 22.1 70.4  79
2020 05 26 20  15 07 56.232   +01 17 09.17  .05118 1.0587 152.1 22.1 71.5  79
2020 05 26 21  15 08 19.068   +01 18 25.38  .05146 1.0590 152.1 22.1 72.5  79
2020 05 26 22  15 08 41.658   +01 19 40.65  .05174 1.0593 152.1 22.1 73.6  79
2020 05 26 23  15 09 04.007   +01 20 54.97  .05203 1.0595 152.1 22.1 74.6  79
2020 05 27 00  15 09 26.118   +01 22 08.38  .05231 1.0598 152.1 22.1 75.7  79
2020 05 27 01  15 09 47.994   +01 23 20.88  .05260 1.0600 152.1 22.1 76.7  79
2020 05 27 02  15 10 09.641   +01 24 32.48  .05288 1.0603 152.1 22.2 77.7  79
2020 05 27 03  15 10 31.060   +01 25 43.21  .05317 1.0606 152.1 22.2 78.8  79
2020 05 27 04  15 10 52.256   +01 26 53.07  .05345 1.0608 152.1 22.2 79.8  79
2020 05 27 05  15 11 13.232   +01 28 02.07  .05374 1.0611 152.1 22.2 80.8  79
2020 05 27 06  15 11 33.992   +01 29 10.23  .05403 1.0614 152.1 22.2 81.8  79
2020 05 27 07  15 11 54.539   +01 30 17.56  .05431 1.0616 152.1 22.2 82.8  79
2020 05 27 08  15 12 14.875   +01 31 24.08  .05460 1.0619 152.1 22.2 83.8  79
2020 05 27 09  15 12 35.005   +01 32 29.79  .05488 1.0622 152.1 22.2 84.8  79
2020 05 27 10  15 12 54.931   +01 33 34.70  .05517 1.0624 152.1 22.2 85.8  79
2020 05 27 11  15 13 14.656   +01 34 38.84  .05546 1.0627 152.1 22.3 86.8  79
2020 05 27 12  15 13 34.183   +01 35 42.20  .05574 1.0630 152.1 22.3 87.8  79
2020 05 27 13  15 13 53.516   +01 36 44.80  .05603 1.0632 152.1 22.3 88.8  79
2020 05 27 14  15 14 12.657   +01 37 46.66  .05632 1.0635 152.1 22.3 89.8  78
2020 05 27 15  15 14 31.610   +01 38 47.77  .05661 1.0637 152.1 22.3 90.7  78
2020 05 27 16  15 14 50.375   +01 39 48.16  .05689 1.0640 152.1 22.3 91.7  78
2020 05 27 17  15 15 08.958   +01 40 47.82  .05718 1.0643 152.1 22.3 92.6  78
2020 05 27 18  15 15 27.359   +01 41 46.78  .05747 1.0645 152.1 22.3 93.6  78
2020 05 27 19  15 15 45.583   +01 42 45.05  .05776 1.0648 152.1 22.3 94.5  78
2020 05 27 20  15 16 03.630   +01 43 42.62  .05804 1.0651 152.1 22.4 95.5  78
2020 05 27 21  15 16 21.505   +01 44 39.51  .05833 1.0653 152.1 22.4 96.4  78
2020 05 27 22  15 16 39.209   +01 45 35.74  .05862 1.0656 152.1 22.4 97.4  78
2020 05 27 23  15 16 56.744   +01 46 31.30  .05891 1.0659 152.1 22.4 98.3  78
2020 05 28 00  15 17 14.114   +01 47 26.21  .05920 1.0661 152.1 22.4 99.2  78
2020 05 28 01  15 17 31.320   +01 48 20.48  .05949 1.0664 152.1 22.4  100  78
2020 05 28 02  15 17 48.366   +01 49 14.12  .05977 1.0667 152.1 22.4  101  78
2020 05 28 03  15 18 05.252   +01 50 07.13  .06006 1.0669 152.1 22.4  102  78
2020 05 28 04  15 18 21.981   +01 50 59.52  .06035 1.0672 152.1 22.4  103  78
2020 05 28 05  15 18 38.556   +01 51 51.30  .06064 1.0674 152.1 22.5  104  78
2020 05 28 06  15 18 54.979   +01 52 42.48  .06093 1.0677 152.1 22.5  105  78
2020 05 28 07  15 19 11.251   +01 53 33.07  .06122 1.0680 152.1 22.5  105  78
2020 05 28 08  15 19 27.376   +01 54 23.07  .06151 1.0682 152.1 22.5  106  78
2020 05 28 09  15 19 43.353   +01 55 12.49  .06180 1.0685 152.1 22.5  107  78
2020 05 28 10  15 19 59.187   +01 56 01.35  .06209 1.0688 152.1 22.5  108  78
2020 05 28 11  15 20 14.879   +01 56 49.64  .06238 1.0690 152.1 22.5  109  78
2020 05 28 12  15 20 30.430   +01 57 37.37  .06267 1.0693 152.1 22.5  110  78